Terminal Aerodrome Forecast
Issued by NWS

Home | Current Version | Previous Version | Text Only | Print | Product List | Glossary On
Versions: 1 2 3 4 5 6 7 8 9 10 11 12 13 14 15 16 17 18 19 20 21 22 23
000
FTUS43 KPAH 151100 RRA
TAFCGI
TAF
KCGI 151140Z 1512/1612 15010KT P6SM SCT030 BKN060 OVC090
     FM151230 14008KT 6SM -SHRA BKN028 OVC080
     FM151445 15012KT 4SM -RA BR BKN006 OVC020
      TEMPO 1516/1519 3SM BR OVC005
     FM151900 18012G22KT 5SM BR VCSH BKN013 OVC030
     FM160100 23008KT P6SM OVC030
     FM160300 27008KT P6SM OVC015=

USA.gov is the U.S. government's official web portal to all federal, state and local government web resources and services.